[[{"header":{"parameterUnit":"m.s-1","parameterCategory":1,"la1":30.2991,"la2":30.254,"lo1":-89.0895,"lo2":-89.0444,"dy":0.0017,"dx":0.0017,"nx":28,"ny":28,"refTime":"2025-12-02T03:00:00:Z","depth":0,"parameterNumber":2,"parameterNumberName":"U-component_of_WINDS"},"data":[0,0,0,0,0,0,0,0,0,0,0,0,0,0,0,0,0,0,0,0,0,0,0,0,0,0,0,0,0,0,0,0,0,0,0,0,0,0,0,0,0,0,0,0,0,0,0,0,0,0,0,0,0,0,0,0,0,0,1.9632,1.9632,0,1.9631,1.9631,1.9631,1.9599,1.9598,1.9598,1.9597,1.9597,1.9598,1.9598,0,0,0,0,0,0,0,0,0,0,0,0,0,1.9607,1.9607,1.9632,1.9632,1.9632,1.9631,1.9631,1.9631,1.9599,1.9598,1.9597,1.9596,1.9597,1.9598,1.9599,0,0,0,0,0,0,0,0,0,0,0,0,0,1.9613,1.9608,1.9632,1.9616,1.9614,1.9631,1.9631,1.9631,1.96,1.9598,1.9597,1.9596,1.9596,1.9598,1.9599,1.9631,0,0,1.9602,1.9603,0,0,0,0,0,0,0,0,1.9613,1.9614,1.9618,1.9617,1.9615,1.9614,1.9622,1.9631,1.96,1.9605,1.9597,1.9595,1.9604,1.9604,1.9607,1.9631,1.9631,1.9602,1.9603,1.9604,1.9604,0,0,0,0,0,0,0,1.9612,1.9614,1.9631,1.9618,1.9616,1.9609,1.9609,1.9624,1.9611,1.9605,1.9602,1.9603,1.9603,1.9606,1.9607,1.9631,1.9602,1.9603,1.9604,1.9605,1.9684,1.9685,0,0,0,0,0,0,1.9614,1.9614,1.9631,1.9631,1.9611,1.9611,1.961,1.9616,1.9611,1.9609,1.9604,1.9601,1.9604,1.9605,1.9607,1.9645,1.9604,1.9605,1.9605,1.9682,1.9684,1.9686,0,0,0,0,0,0,1.9614,1.9616,1.9631,1.9622,1.9623,1.9612,1.9619,1.9616,1.9619,1.9611,1.9608,1.9609,1.9603,1.9605,1.9626,1.9645,1.9605,1.9606,1.9681,1.9683,1.9685,1.9722,0,0,0,0,0,0,1.9613,1.9616,1.9628,1.9622,1.9624,1.965,1.962,1.9617,1.9621,1.9618,1.9615,1.9613,1.9603,1.9624,1.9627,1.9646,1.9607,1.9679,1.9682,1.9684,1.9719,1.9725,1.973,0,0,0,0,0,1.9612,1.9638,1.9628,1.9631,1.9638,1.9651,1.9652,1.9639,1.9623,1.9635,1.963,1.9613,1.9642,1.9626,1.9629,1.9649,1.9678,1.9681,1.9684,1.9717,1.9724,1.973,0,0,0,0,0,0,1.9645,1.9637,1.9626,1.9651,1.9652,1.9646,1.966,1.9647,1.9653,1.965,1.9634,1.9633,1.9657,1.9655,1.9637,1.9681,1.9657,1.9661,1.9681,1.9688,1.9694,1.9694,1.9608,0,0,0,0,0,1.9655,1.9666,1.9658,1.9681,1.9682,1.9671,1.9676,1.9666,1.9667,1.9667,1.9663,1.9665,1.9675,1.9681,1.9689,1.9719,1.9718,1.9734,1.974,1.9744,1.9748,1.9765,1.9772,1.9696,1.9696,1.9696,0,0,1.9676,1.9673,1.9681,1.9687,1.9687,1.9699,1.9672,1.9685,1.9695,1.9669,1.9689,1.9686,1.9687,1.9713,1.9724,1.9712,1.9769,1.9748,1.9752,1.9753,1.9769,1.9776,1.9782,1.9698,1.9698,1.9697,0,0,1.9721,1.9719,1.9738,1.9739,1.9739,1.9732,1.9737,1.9733,1.973,1.975,1.9732,1.9743,1.9759,1.9761,1.9764,1.9812,1.9797,1.9815,1.9844,1.9861,1.9867,1.9872,1.989,1.9897,1.9818,1.9818,1.9818,0,1.9747,1.9764,1.975,1.9765,1.9769,1.9747,1.9767,1.9769,1.9772,1.9775,1.9762,1.9783,1.9782,1.9809,1.9821,1.9824,1.9829,1.9815,1.9867,1.9872,1.9877,1.9894,1.99,1.9821,1.982,1.982,1.982,0,1.9796,1.9809,1.9824,1.9828,1.9834,1.9852,1.9841,1.9849,1.9839,1.9834,1.9855,1.9853,1.9861,1.9867,1.9857,1.9893,1.9885,1.987,1.9846,1.9887,1.9902,1.9909,1.9824,1.9823,1.9822,1.9822,0,0,1.986,1.9857,1.9863,1.9865,1.9865,1.9875,1.9892,1.99,1.9908,1.9911,1.9926,1.9941,1.9927,1.9931,1.9922,1.9936,1.9975,1.9919,1.9919,1.993,2.0016,2.0028,2.0035,1.9966,1.9967,1.9968,2.0016,0,1.9904,1.9933,1.9921,1.9952,1.9964,1.9944,1.996,1.9962,1.9958,1.9968,1.9964,1.9975,1.9956,1.9958,1.9972,1.9968,1.9992,1.9964,1.998,1.9981,1.9981,2.0043,2.0055,2.0101,2.0022,2.0023,2.0024,0,1.9958,1.9964,1.9996,1.9995,1.9999,2.0013,2.0021,2.003,2.0033,2.0029,2.0034,2.0022,2.004,2.0017,2.0042,2.0023,2.0029,2.0029,2.003,2.0031,2.0005,2.0047,2.0115,2.0122,2.0033,2.0032,2.0032,0,2.0003,2.0019,2.004,2.0042,2.0041,2.0052,2.0052,2.0053,2.006,2.0066,2.007,2.0079,2.0084,2.0092,2.0083,2.0067,2.011,2.0086,2.0108,2.0109,2.0118,2.0118,2.0189,2.0122,2.0122,2.0122,2.0122,0,2.0053,2.0073,2.006,2.0073,2.0096,2.0083,2.0106,2.0105,2.0106,2.0119,2.0103,2.0116,2.0103,2.0115,2.0109,2.0131,2.0134,2.0132,2.013,2.0133,2.0134,2.0137,2.0134,2.0123,2.0123,2.0123,2.0122,0,2.0106,2.0098,2.012,2.0118,2.0118,2.0135,2.0133,2.0146,2.0142,2.0159,2.0162,2.0155,2.0169,2.0161,2.0174,2.017,2.02,2.0193,2.0199,2.0197,2.0221,2.0219,2.0297,2.0307,2.0233,2.0234,2.0234,0,2.0138,2.0154,2.0153,2.0161,2.0162,2.0175,2.0181,2.017,2.0178,2.0183,2.0195,2.0208,2.0217,2.0239,2.0236,2.0247,2.0241,2.0268,2.0242,2.0246,2.0242,2.0242,2.0244,2.0273,2.0273,2.0274,2.0275,0,2.0197,2.0193,2.0203,2.0212,2.022,2.0227,2.0232,2.024,2.0229,2.0238,2.0252,2.0259,2.0274,2.0287,2.0296,2.0297,2.0285,2.0283,2.0289,2.0293,2.0296,2.0295,2.0213,2.0281,2.028,2.028,2.0279,2.0279,2.0241,2.0255,2.0257,2.0269,2.0272,2.0278,2.029,2.0288,2.0299,2.031,2.0303,2.0319,2.0323,2.0335,2.0338,2.0351,2.0341,2.0349,2.0351,2.0354,2.0357,2.0294,2.0353,2.0353,2.0352,2.0352,2.0352,0,2.03,2.0301,2.0312,2.0321,2.0331,2.0318,2.0324,2.0333,2.0348,2.0352,2.0362,2.0379,2.0391,2.039,2.0402,2.0413,2.0408,2.0417,2.0416,2.0417,2.0366,2.036,2.0421,2.0421,2.0421,2.0421,2.0421,2.0421,2.0332,2.0354,2.035,2.0374,2.0375,2.0391,2.0396,2.0402,2.0405,2.0425,2.0435,2.0434,2.0437,2.0449,2.0461,2.046,2.0466,2.0477,2.0474,2.0427,2.042,2.0413,2.0408,2.0478,2.0478,2.0524,2.0524,2.0525]},{"header":{"parameterUnit":"m.s-1","parameterCategory":1,"la1":30.2991,"la2":30.254,"lo1":-89.0895,"lo2":-89.0444,"dy":0.0017,"dx":0.0017,"nx":28,"ny":28,"refTime":"2025-12-02T03:00:00:Z","depth":0,"parameterNumber":3,"parameterNumberName":"V-component_of_WINDS"},"data":[0,0,0,0,0,0,0,0,0,0,0,0,0,0,0,0,0,0,0,0,0,0,0,0,0,0,0,0,0,0,0,0,0,0,0,0,0,0,0,0,0,0,0,0,0,0,0,0,0,0,0,0,0,0,0,0,0,0,-5.8346,-5.8347,0,-5.8455,-5.8457,-5.8458,-5.8468,-5.8466,-5.8465,-5.8464,-5.857,-5.8574,-5.8578,0,0,0,0,0,0,0,0,0,0,0,0,0,-5.8141,-5.8145,-5.8346,-5.8347,-5.8349,-5.8455,-5.8457,-5.8458,-5.8468,-5.8466,-5.8465,-5.8464,-5.8569,-5.8574,-5.8578,0,0,0,0,0,0,0,0,0,0,0,0,0,-5.8238,-5.8146,-5.8346,-5.8366,-5.8369,-5.8455,-5.8457,-5.8459,-5.8468,-5.8466,-5.8465,-5.8463,-5.8567,-5.8573,-5.8579,-5.8649,0,0,-5.8597,-5.8599,0,0,0,0,0,0,0,0,-5.8233,-5.8246,-5.8362,-5.8365,-5.8369,-5.8446,-5.8423,-5.8522,-5.8468,-5.843,-5.8464,-5.8462,-5.853,-5.8539,-5.8563,-5.8654,-5.8659,-5.8597,-5.8601,-5.8603,-5.8605,0,0,0,0,0,0,0,-5.8226,-5.8241,-5.8389,-5.8364,-5.8368,-5.8369,-5.8381,-5.8442,-5.8488,-5.8434,-5.8435,-5.8448,-5.8531,-5.8557,-5.8565,-5.866,-5.8597,-5.8602,-5.8606,-5.8608,-5.8817,-5.8819,0,0,0,0,0,0,-5.8216,-5.8235,-5.8386,-5.8392,-5.8295,-5.8374,-5.8387,-5.8423,-5.8488,-5.8496,-5.8449,-5.8448,-5.8548,-5.8559,-5.8569,-5.8657,-5.8603,-5.8609,-5.8612,-5.8815,-5.8817,-5.8819,0,0,0,0,0,0,-5.8211,-5.8229,-5.8381,-5.8314,-5.8334,-5.8379,-5.8419,-5.8426,-5.8452,-5.85,-5.8507,-5.8467,-5.8547,-5.8561,-5.863,-5.8661,-5.8611,-5.8617,-5.8812,-5.8815,-5.8818,-5.8832,0,0,0,0,0,0,-5.8206,-5.8228,-5.8256,-5.8315,-5.8337,-5.8442,-5.8421,-5.8429,-5.8463,-5.8462,-5.8519,-5.8526,-5.8547,-5.8621,-5.8636,-5.8668,-5.8621,-5.881,-5.8814,-5.8817,-5.8829,-5.8836,-5.8841,0,0,0,0,0,-5.8198,-5.8254,-5.8257,-5.8275,-5.8374,-5.8443,-5.8456,-5.848,-5.8465,-5.8493,-5.8524,-5.8525,-5.8655,-5.8628,-5.8645,-5.8679,-5.8808,-5.8813,-5.8817,-5.8827,-5.8834,-5.8841,0,0,0,0,0,0,-5.8194,-5.8262,-5.8266,-5.8343,-5.8388,-5.8445,-5.8481,-5.8487,-5.8535,-5.8533,-5.8559,-5.8572,-5.864,-5.8666,-5.8635,-5.8751,-5.873,-5.8738,-5.8732,-5.8739,-5.8745,-5.8737,-5.8626,0,0,0,0,0,-5.8203,-5.8255,-5.8311,-5.8373,-5.8395,-5.8435,-5.8466,-5.8481,-5.8527,-5.8546,-5.8582,-5.8625,-5.8677,-5.8709,-5.8759,-5.8834,-5.8846,-5.8865,-5.8871,-5.8875,-5.8882,-5.8924,-5.8934,-5.8834,-5.8834,-5.8834,0,0,-5.8219,-5.8263,-5.8294,-5.8373,-5.841,-5.8463,-5.845,-5.8506,-5.8545,-5.8553,-5.8622,-5.865,-5.87,-5.8773,-5.8807,-5.8797,-5.8912,-5.8881,-5.8885,-5.8889,-5.893,-5.8939,-5.8948,-5.8837,-5.8837,-5.8836,0,0,-5.8278,-5.8316,-5.8373,-5.8411,-5.8467,-5.8493,-5.8507,-5.8564,-5.8584,-5.8654,-5.8661,-5.8708,-5.8795,-5.8831,-5.8861,-5.8936,-5.8938,-5.8951,-5.898,-5.9022,-5.9029,-5.9036,-5.9063,-5.9073,-5.8957,-5.8957,-5.8957,0,-5.8291,-5.8373,-5.8401,-5.8458,-5.8492,-5.8505,-5.8563,-5.8597,-5.8666,-5.8689,-5.8678,-5.8789,-5.8824,-5.8906,-5.8924,-5.8948,-5.8964,-5.8944,-5.9026,-5.9034,-5.9041,-5.9067,-5.9077,-5.8958,-5.8958,-5.8958,-5.8958,0,-5.8387,-5.8444,-5.8483,-5.8552,-5.8591,-5.8647,-5.8683,-5.8719,-5.8731,-5.8758,-5.8829,-5.8872,-5.8931,-5.8951,-5.8962,-5.9035,-5.9028,-5.9021,-5.9,-5.9051,-5.9076,-5.9086,-5.896,-5.896,-5.8959,-5.8959,0,0,-5.8444,-5.853,-5.8544,-5.8576,-5.8641,-5.8684,-5.8742,-5.8802,-5.8832,-5.888,-5.8928,-5.9003,-5.8998,-5.9032,-5.9048,-5.9084,-5.9141,-5.9073,-5.9075,-5.9085,-5.9225,-5.9229,-5.924,-5.9144,-5.9146,-5.9147,-5.9221,0,-5.851,-5.8615,-5.8642,-5.8731,-5.8783,-5.8798,-5.8848,-5.8892,-5.8919,-5.8967,-5.8996,-5.9049,-5.9038,-5.9059,-5.9095,-5.9127,-5.917,-5.9122,-5.9188,-5.919,-5.9175,-5.9253,-5.9258,-5.9325,-5.923,-5.9232,-5.9233,0,-5.86,-5.8653,-5.8747,-5.8807,-5.883,-5.8875,-5.8933,-5.8979,-5.9029,-5.9047,-5.9086,-5.9099,-5.9158,-5.9135,-5.9217,-5.9184,-5.9212,-5.9232,-5.9235,-5.9242,-5.9214,-5.9262,-5.9347,-5.9357,-5.9249,-5.9248,-5.9246,0,-5.8633,-5.8727,-5.8796,-5.8823,-5.8894,-5.8926,-5.8956,-5.9005,-5.9041,-5.9091,-5.9114,-5.917,-5.92,-5.9243,-5.927,-5.925,-5.935,-5.9328,-5.9365,-5.9364,-5.9385,-5.9383,-5.9475,-5.9404,-5.9403,-5.9403,-5.9403,0,-5.8703,-5.8761,-5.8812,-5.8855,-5.8919,-5.895,-5.9013,-5.9044,-5.9088,-5.9136,-5.915,-5.9195,-5.9228,-5.9277,-5.9299,-5.9364,-5.9377,-5.9392,-5.9397,-5.9391,-5.9389,-5.9409,-5.9405,-5.9406,-5.9405,-5.9405,-5.9404,0,-5.875,-5.8787,-5.8864,-5.8926,-5.8943,-5.8988,-5.904,-5.9082,-5.911,-5.9171,-5.9186,-5.9231,-5.9289,-5.9321,-5.9393,-5.9408,-5.948,-5.9483,-5.9464,-5.9466,-5.9501,-5.9497,-5.9609,-5.9626,-5.9543,-5.9544,-5.9545,0,-5.8793,-5.8838,-5.8906,-5.894,-5.8972,-5.9027,-5.9064,-5.9096,-5.9134,-5.9196,-5.923,-5.929,-5.9339,-5.9431,-5.9469,-5.9524,-5.9528,-5.9564,-5.9536,-5.9529,-5.9529,-5.9526,-5.9531,-5.9568,-5.9569,-5.9569,-5.957,0,-5.8864,-5.8881,-5.8935,-5.8996,-5.904,-5.9089,-5.9137,-5.9163,-5.9204,-5.9245,-5.9306,-5.9345,-5.9421,-5.9479,-5.9539,-5.9568,-5.9576,-5.9579,-5.959,-5.9584,-5.9571,-5.9579,-5.9477,-5.9576,-5.9575,-5.9575,-5.9574,-5.9574,-5.891,-5.8952,-5.9007,-5.9066,-5.9107,-5.9152,-5.9195,-5.923,-5.9282,-5.9348,-5.9363,-5.9428,-5.9478,-5.9559,-5.9591,-5.9641,-5.9634,-5.965,-5.9655,-5.9658,-5.966,-5.9564,-5.9652,-5.9652,-5.9651,-5.9651,-5.9651,0,-5.8983,-5.902,-5.9075,-5.9143,-5.919,-5.9196,-5.925,-5.9288,-5.9346,-5.9394,-5.9443,-5.9514,-5.9572,-5.9615,-5.9674,-5.9706,-5.971,-5.972,-5.9718,-5.9724,-5.9662,-5.9647,-5.9715,-5.9715,-5.9715,-5.9715,-5.9715,-5.9715,-5.9026,-5.9097,-5.912,-5.9211,-5.9247,-5.9313,-5.9343,-5.9385,-5.9423,-5.9503,-5.9552,-5.958,-5.9626,-5.9689,-5.9742,-5.9753,-5.9774,-5.9783,-5.9794,-5.9735,-5.9729,-5.9722,-5.9708,-5.9787,-5.9788,-5.9852,-5.9853,-5.9853]}]]